Pottstown, PA

12:39 AM EDT on October 18, 2019 (GMT -0400)
Pottstown Limerick

Weather History for KPTW - September, 2019

Change the Weather History Date:

Thursday, September 19, 2019

  Actual Average (KRDG) Record (KRDG)
Temperature  
Mean Temperature 56 °F -  
Max Temperature 69 °F 72 °F 91 °F (1965)
Min Temperature 43 °F 52 °F 38 °F (1993)
Degree Days  
Heating Degree Days 9    
Growing Degree Days 6 (Base 50)    
Moisture  
Dew Point 44 °F    
Average Humidity 71    
Maximum Humidity 100    
Minimum Humidity 35    
Precipitation  
Precipitation 0.00 in - - ()
Sea Level Pressure  
Sea Level Pressure 30.33 in    
Wind  
Wind Speed 1 mph (NE)    
Max Wind Speed 6 mph    
Max Gust Speed -    
Visibility 10 miles    
Events      
Averages and records for this station are not official NWS values.
T = Trace of Precipitation, MM = Missing Value Source: NWS Daily Summary

Daily Weather History Graph

Daily Weather History Graph

Search for Another Location

Airport or City:

Astronomy

Sep. 19, 2019 Rise Set
Actual Time 6:46 AM EDT 7:04 PM EDT
Civil Twilight 6:19 AM EDT 7:31 PM EDT
Nautical Twilight 5:47 AM EDT 8:03 PM EDT
Astronomical Twilight 5:14 AM EDT 8:36 PM EDT
Moon 10:11 PM EDT (9/19) 11:48 AM EDT (9/19)
Length of Visible Light 13h 12m
Length of Day
12h 18m
Waning Gibbous, 74% of the Moon is Illuminated
Sep 19
Waning Gibbous
Sep 21
Last Quarter
Sep 28
New
Oct 5
First Quarter
Oct 13
Full

Hourly Weather History & Observations

Time (EDT) Temp. Dew Point Humidity Pressure Visibility Wind Dir Wind Speed Gust Speed Precip Events Conditions
12:54 AM 50.0 °F 48.0 °F 93% 30.32 in 10.0 mi Calm Calm - N/A   Clear
1:54 AM 50.0 °F 48.9 °F 96% 30.32 in 10.0 mi Calm Calm - N/A   Clear
2:54 AM 48.0 °F 48.0 °F 100% 30.32 in 10.0 mi Calm Calm - N/A   Clear
3:54 AM 46.0 °F 46.0 °F 100% 30.33 in 10.0 mi Calm Calm - N/A   Clear
4:54 AM 48.9 °F 46.9 °F 93% 30.35 in 10.0 mi ENE 3.5 mph - N/A   Clear
5:54 AM 45.0 °F 45.0 °F 100% 30.34 in 9.0 mi Calm Calm - N/A   Clear
6:54 AM 43.0 °F 43.0 °F 100% 30.36 in 8.0 mi Calm Calm - N/A   Clear
7:54 AM 48.9 °F 48.0 °F 97% 30.37 in 8.0 mi Calm Calm - N/A   Clear
8:54 AM 54.0 °F 48.0 °F 80% 30.38 in 10.0 mi ENE 3.5 mph - N/A   Clear
9:54 AM 57.9 °F 45.0 °F 62% 30.39 in 10.0 mi NNE 3.5 mph - N/A   Clear
10:54 AM 61.0 °F 44.1 °F 54% 30.38 in 10.0 mi ENE 5.8 mph - N/A   Clear
11:54 AM 63.0 °F 39.9 °F 43% 30.37 in 10.0 mi Calm Calm - N/A   Clear
12:54 PM 64.0 °F 41.0 °F 43% 30.36 in 10.0 mi Variable 4.6 mph - N/A   Clear
1:54 PM 66.0 °F 39.9 °F 38% 30.34 in 10.0 mi Calm Calm - N/A   Clear
2:54 PM 68.0 °F 39.9 °F 36% 30.32 in 10.0 mi Variable 3.5 mph - N/A   Clear
3:54 PM 69.1 °F 39.9 °F 35% 30.32 in 10.0 mi Calm Calm - N/A   Clear
4:54 PM 68.0 °F 39.9 °F 36% 30.31 in 10.0 mi Calm Calm - N/A   Clear
5:54 PM 68.0 °F 39.9 °F 36% 30.31 in 10.0 mi Calm Calm - N/A   Clear
6:54 PM 63.0 °F 41.0 °F 45% 30.31 in 10.0 mi Calm Calm - N/A   Clear
7:54 PM 55.0 °F 45.0 °F 69% 30.31 in 10.0 mi Calm Calm - N/A   Clear
8:54 PM 52.0 °F 45.0 °F 77% 30.31 in 10.0 mi Calm Calm - N/A   Clear
9:54 PM 50.0 °F 46.0 °F 86% 30.31 in 10.0 mi Calm Calm - N/A   Clear
10:54 PM 48.0 °F 45.0 °F 89% 30.30 in 10.0 mi Calm Calm - N/A   Clear
11:54 PM 46.0 °F 44.1 °F 93% 30.30 in 10.0 mi Calm Calm - N/A   Clear